• In Belarus
  • List of Countries
  • For 7 days
  • Water Temperature
  • Satellite Maps
  • Weather Map
  • Weather Widgets
  • user-avatar
    Login

    Hourly Weather La Ceiba

    Today, 14 November, Wednesday

    Time Temperature Precipitation Wind Pressure Humidity
    00:00 +26°C° 0.3 mm 2 mps 760 mmHg 97%
    01:00 +26°C° 0.4 mm 2 mps 760 mmHg 97%
    02:00 +26°C° 0.4 mm 2 mps 760 mmHg 97%
    03:00 +25°C° 0.4 mm 1 mps 760 mmHg 97%
    04:00 +25°C° 0.9 mm 1 mps 760 mmHg 97%
    05:00 +25°C° 0.9 mm 2 mps 760 mmHg 97%
    06:00 +25°C° 0.9 mm 2 mps 761 mmHg 97%
    07:00 +27°C° 0.7 mm 2 mps 761 mmHg 89%
    08:00 +29°C° 0.7 mm 2 mps 762 mmHg 80%
    09:00 +30°C° 0.7 mm 3 mps 762 mmHg 72%
    10:00 +31°C° 0.3 mm 3 mps 762 mmHg 71%
    11:00 +31°C° 0.3 mm 3 mps 761 mmHg 69%
    12:00 +33°C° 0.3 mm 4 mps 761 mmHg 67%
    13:00 +32°C° 0.3 mm 4 mps 760 mmHg 70%
    14:00 +32°C° 0.3 mm 4 mps 760 mmHg 72%
    15:00 +30°C° 0.3 mm 4 mps 759 mmHg 75%
    16:00 +29°C° 0.5 mm 4 mps 760 mmHg 82%
    17:00 +27°C° 0.5 mm 5 mps 760 mmHg 89%
    18:00 +26°C° 0.5 mm 5 mps 760 mmHg 96%
    19:00 +25°C° 0.4 mm 5 mps 761 mmHg 96%
    20:00 +24°C° 0.4 mm 6 mps 762 mmHg 97%
    21:00 +24°C° 0.4 mm 7 mps 762 mmHg 97%
    22:00 +24°C° 0.2 mm 7 mps 762 mmHg 97%
    23:00 +23°C° 0.2 mm 7 mps 762 mmHg 97%

    Tomorrow, 15 November, Thursday

    Time Temperature Precipitation Wind Pressure Humidity
    00:00 +23°C° 0.2 mm 7 mps 762 mmHg 97%
    01:00 +23°C° 0.3 mm 7 mps 762 mmHg 96%
    02:00 +23°C° 0.3 mm 7 mps 762 mmHg 96%
    03:00 +23°C° 0.3 mm 7 mps 761 mmHg 95%
    04:00 +22°C° 2.5 mm 7 mps 761 mmHg 94%
    05:00 +22°C° 2.5 mm 7 mps 761 mmHg 94%
    06:00 +22°C° 2.5 mm 6 mps 762 mmHg 93%
    07:00 +22°C° 6.9 mm 6 mps 762 mmHg 93%
    08:00 +23°C° 6.9 mm 5 mps 763 mmHg 93%
    09:00 +23°C° 6.9 mm 5 mps 763 mmHg 93%
    10:00 +23°C° 4.7 mm 5 mps 763 mmHg 93%
    11:00 +23°C° 4.7 mm 5 mps 762 mmHg 93%
    12:00 +23°C° 4.7 mm 5 mps 762 mmHg 94%
    13:00 +22°C° 3.8 mm 5 mps 761 mmHg 95%
    14:00 +22°C° 3.8 mm 6 mps 761 mmHg 95%
    15:00 +22°C° 3.8 mm 6 mps 760 mmHg 96%
    16:00 +22°C° 2.2 mm 6 mps 761 mmHg 97%
    17:00 +22°C° 2.2 mm 6 mps 761 mmHg 97%
    18:00 +22°C° 2.2 mm 6 mps 761 mmHg 97%
    19:00 +22°C° 2.2 mm 5 mps 762 mmHg 98%
    20:00 +22°C° 2.2 mm 5 mps 762 mmHg 98%
    21:00 +22°C° 2.2 mm 5 mps 763 mmHg 98%
    22:00 +22°C° 2.2 mm 5 mps 762 mmHg 98%
    23:00 +22°C° 2.2 mm 5 mps 762 mmHg 97%

    Day after tomorrow, 16 November, Friday

    Time Temperature Precipitation Wind Pressure Humidity
    00:00 +22°C° 2.2 mm 4 mps 762 mmHg 97%
    01:00 +22°C° 1.8 mm 5 mps 762 mmHg 97%
    02:00 +22°C° 1.8 mm 5 mps 761 mmHg 97%
    03:00 +22°C° 1.8 mm 5 mps 761 mmHg 97%
    04:00 +22°C° 1.6 mm 5 mps 761 mmHg 97%
    05:00 +22°C° 1.6 mm 5 mps 761 mmHg 97%
    06:00 +22°C° 1.6 mm 5 mps 761 mmHg 97%
    07:00 +23°C° 1.6 mm 6 mps 762 mmHg 97%
    08:00 +23°C° 1.6 mm 6 mps 762 mmHg 97%
    09:00 +23°C° 1.6 mm 6 mps 763 mmHg 97%
    10:00 +23°C° 1.6 mm 6 mps 762 mmHg 97%
    11:00 +23°C° 1.6 mm 6 mps 762 mmHg 97%
    12:00 +23°C° 1.6 mm 6 mps 762 mmHg 97%
    13:00 +23°C° 2 mm 6 mps 761 mmHg 97%
    14:00 +23°C° 2 mm 5 mps 760 mmHg 96%
    15:00 +23°C° 2 mm 5 mps 760 mmHg 96%
    16:00 +22°C° 2.8 mm 5 mps 760 mmHg 96%
    17:00 +22°C° 2.8 mm 4 mps 760 mmHg 96%
    18:00 +22°C° 2.8 mm 4 mps 761 mmHg 96%
    19:00 +22°C° 3.6 mm 3 mps 761 mmHg 96%
    20:00 +22°C° 3.6 mm 3 mps 762 mmHg 96%
    21:00 +23°C° 3.6 mm 2 mps 762 mmHg 96%
    22:00 +23°C° 5.2 mm 2 mps 762 mmHg 96%
    23:00 +23°C° 5.2 mm 2 mps 761 mmHg 96%

    17 November, Saturday

    Time Temperature Precipitation Wind Pressure Humidity
    00:00 +23°C° 5.2 mm 2 mps 761 mmHg 96%
    01:00 +23°C° 5.4 mm 2 mps 761 mmHg 96%
    02:00 +23°C° 5.4 mm 2 mps 761 mmHg 97%
    03:00 +23°C° 5.4 mm 2 mps 760 mmHg 97%
    04:00 +23°C° 5.9 mm 2 mps 761 mmHg 96%
    05:00 +23°C° 5.9 mm 2 mps 761 mmHg 96%
    06:00 +23°C° 5.9 mm 2 mps 761 mmHg 96%
    07:00 +24°C° 3.3 mm 2 mps 762 mmHg 95%
    08:00 +25°C° 3.3 mm 2 mps 762 mmHg 93%
    09:00 +25°C° 3.3 mm 1 mps 762 mmHg 92%
    10:00 +26°C° 1.6 mm 2 mps 762 mmHg 88%
    11:00 +27°C° 1.6 mm 2 mps 761 mmHg 84%
    12:00 +28°C° 1.6 mm 3 mps 760 mmHg 79%
    13:00 +28°C° 0.3 mm 3 mps 760 mmHg 80%
    14:00 +28°C° 0.3 mm 3 mps 759 mmHg 81%
    15:00 +29°C° 0.3 mm 4 mps 759 mmHg 81%
    16:00 +27°C° 0.4 mm 3 mps 759 mmHg 86%
    17:00 +26°C° 0.4 mm 3 mps 760 mmHg 92%
    18:00 +25°C° 0.4 mm 3 mps 760 mmHg 97%
    19:00 +25°C° 0.5 mm 3 mps 760 mmHg 97%
    20:00 +25°C° 0.5 mm 2 mps 761 mmHg 97%
    21:00 +25°C° 0.5 mm 2 mps 761 mmHg 98%
    22:00 +25°C° 0.5 mm 2 mps 761 mmHg 98%
    23:00 +25°C° 0.5 mm 2 mps 760 mmHg 98%

    18 November, Sunday

    Time Temperature Precipitation Wind Pressure Humidity
    00:00 +25°C° 0.5 mm 2 mps 760 mmHg 98%
    01:00 +25°C° 0.6 mm 2 mps 760 mmHg 98%
    02:00 +25°C° 0.6 mm 2 mps 760 mmHg 98%
    03:00 +25°C° 0.6 mm 2 mps 759 mmHg 98%
    04:00 +25°C° 0.8 mm 2 mps 760 mmHg 98%
    05:00 +25°C° 0.8 mm 2 mps 760 mmHg 98%
    06:00 +25°C° 0.8 mm 2 mps 760 mmHg 98%
    07:00 +26°C° 0.5 mm 2 mps 761 mmHg 92%
    08:00 +28°C° 0.5 mm 3 mps 761 mmHg 86%
    09:00 +29°C° 0.5 mm 3 mps 761 mmHg 80%
    10:00 +30°C° 0.2 mm 3 mps 761 mmHg 77%
    11:00 +31°C° 0.2 mm 3 mps 760 mmHg 75%
    12:00 +31°C° 0.2 mm 3 mps 760 mmHg 72%
    13:00 +31°C° 0.6 mm 3 mps 759 mmHg 76%
    14:00 +31°C° 0.6 mm 2 mps 759 mmHg 81%
    15:00 +30°C° 0.6 mm 2 mps 758 mmHg 85%
    16:00 +29°C° 0.3 mm 2 mps 759 mmHg 89%
    17:00 +28°C° 0.3 mm 1 mps 759 mmHg 94%
    18:00 +27°C° 0.3 mm 1 mps 760 mmHg 98%
    19:00 +26°C° 1 mm 1 mps 760 mmHg 98%
    20:00 +26°C° 1 mm 1 mps 760 mmHg 98%
    21:00 +26°C° 1 mm 1 mps 761 mmHg 98%
    22:00 +26°C° 1.2 mm 1 mps 761 mmHg 98%
    23:00 +25°C° 1.2 mm 1 mps 760 mmHg 98%

    19 November, Monday

    Time Temperature Precipitation Wind Pressure Humidity
    00:00 +25°C° 1.2 mm 1 mps 760 mmHg 99%
    01:00 +25°C° 1.6 mm 1 mps 760 mmHg 99%
    02:00 +25°C° 1.6 mm 1 mps 760 mmHg 99%
    03:00 +25°C° 1.6 mm 2 mps 759 mmHg 99%
    04:00 +25°C° 1.3 mm 2 mps 760 mmHg 98%
    05:00 +25°C° 1.3 mm 2 mps 760 mmHg 98%
    06:00 +25°C° 1.3 mm 2 mps 760 mmHg 98%
    07:00 +26°C° 1.1 mm 2 mps 761 mmHg 94%
    08:00 +27°C° 1.1 mm 2 mps 761 mmHg 89%
    09:00 +29°C° 1.1 mm 2 mps 762 mmHg 84%
    10:00 +29°C° 1.2 mm 2 mps 761 mmHg 81%
    11:00 +30°C° 1.2 mm 2 mps 761 mmHg 77%
    12:00 +31°C° 1.2 mm 2 mps 760 mmHg 74%
    13:00 +30°C° 1.3 mm 2 mps 760 mmHg 79%
    14:00 +30°C° 1.3 mm 3 mps 759 mmHg 84%
    15:00 +29°C° 1.3 mm 3 mps 759 mmHg 89%
    16:00 +28°C° 1.1 mm 2 mps 759 mmHg 92%
    17:00 +27°C° 1.1 mm 2 mps 760 mmHg 95%
    18:00 +26°C° 1.1 mm 2 mps 761 mmHg 98%
    19:00 +26°C° 1 mm 2 mps 761 mmHg 98%
    20:00 +26°C° 1 mm 1 mps 761 mmHg 98%
    21:00 +26°C° 1 mm 1 mps 762 mmHg 98%
    22:00 +25°C° 0.7 mm 1 mps 762 mmHg 98%
    23:00 +25°C° 0.7 mm 1 mps 761 mmHg 99%
    Show more